Weather in Pereslegino

Russia / Pskov Oblast     56°23′01″N   30°26′12″E
temp.,
°C
wind,
m/s
gust,
m/s
humid.,
%
clouds,
%
prec.,
mm/h
press.,
hPa
HPBL,
m
21 april, wed
wed2100:00+6ne2591100 0.0 1013277
03:00+5ese118991 0.1 101121
06:00+5nne0192100 0.1 100829
09:00+7nnw348392 0.3 1007672
12:00+7w457898 0.4 1006768
15:00+10wsw466173 0.7 10051371
18:00+10w355828 0.4 10051270
21:00+7s3675100 0.4 1006108
22 april, thu
thu2200:00+7ssw4108385 0.0 1006341
03:00+6ssw4119089 0.1 1006303
06:00+4ssw379590 0.0 1007172
09:00+9sw476722 0.0 1008486
12:00+13ssw46455 0.0 10081339
15:00+16s5739100 0.0 10072538
18:00+13s586097 0.4 10061271
21:00+8w3787100 1.4 1008301
23 april, fri
fri2300:00+6ssw2488100 0.0 1008135
03:00+5ssw4982100 0.0 1008414
06:00+4ssw51082100 0.0 1008665
09:00+6ssw6106721 0.0 10091330
12:00+6ssw6962100 0.1 10101538
15:00+7ssw695798 0.2 10111825
18:00+6ssw576799 0.3 10111062
21:00+3ssw248071 0.7 101186
24 april, sat
sat2400:00+1wsw23855 0.0 101150
03:000wsw23915 0.0 101146
06:000w2493100 0.0 1010100
09:00+4wsw23685 0.0 1009756
12:00+5wsw556197 0.1 10081403
15:00+6wsw4557100 0.1 10081482
18:00+5w567456 0.4 1008909
21:00+3w3681100 0.5 1009610
25 april, sun
sun2500:00+2w489190 0.2 1008555
03:00+1w3887100 0.2 1008424
06:000wsw279486 0.0 1008286
09:00+3wsw357374 0.0 1008861
12:00+4sw4459100 0.1 10081453
15:00+5wsw345792 0.2 10081327
18:00+6wnw335143 0.0 10081393
21:00+1wnw22735 0.0 100813